| time (UTC) | temp C | wind direction | speed KPH | gust KPH | rain 1hr cm | rain 24hr cm | rain mn cm | humidity % | barometer mb |
| 20260508072846 | 1 | 136 | 0.0 | 0.0 | 0.00 | 0.00 | 0.00 | 98 | 1017.7 |
| 20260508072342 | 1 | 138 | 0.0 | 0.0 | 0.00 | 0.00 | 0.00 | 98 | 1017.5 |
| 20260508071839 | 2 | 127 | 0.0 | 0.0 | 0.00 | 0.00 | 0.00 | 98 | 1017.7 |
| 20260508071338 | 2 | 92 | 0.0 | 0.0 | 0.00 | 0.00 | 0.00 | 98 | 1017.7 |
| 20260508070835 | 2 | 93 | 0.0 | 0.0 | 0.00 | 0.00 | 0.00 | 98 | 1017.8 |
| 20260508070333 | 2 | 97 | 0.0 | 0.0 | 0.00 | 0.00 | 0.00 | 98 | 1017.9 |
| 20260508065831 | 2 | 99 | 0.0 | 0.0 | 0.00 | 0.00 | 0.00 | 98 | 1017.7 |
| 20260508065329 | 2 | 101 | 0.0 | 0.0 | 0.00 | 0.00 | 0.00 | 98 | 1017.8 |
| 20260508064827 | 2 | 104 | 0.0 | 0.0 | 0.00 | 0.00 | 0.00 | 98 | 1017.6 |
| 20260508064324 | 2 | 123 | 0.0 | 0.0 | 0.00 | 0.00 | 0.00 | 98 | 1017.7 |
| 20260508063821 | 2 | 131 | 0.0 | 0.0 | 0.00 | 0.00 | 0.00 | 98 | 1017.6 |
| 20260508063320 | 2 | 131 | 0.0 | 0.0 | 0.00 | 0.00 | 0.00 | 98 | 1017.7 |
| 20260508062816 | 2 | 117 | 0.0 | 0.0 | 0.00 | 0.00 | 0.00 | 98 | 1017.7 |
| 20260508062314 | 2 | 99 | 0.0 | 0.0 | 0.00 | 0.00 | 0.00 | 98 | 1017.7 |
| 20260508061810 | 2 | 98 | 0.0 | 0.0 | 0.00 | 0.00 | 0.00 | 98 | 1017.7 |
| 20260508061307 | 2 | 99 | 0.0 | 0.0 | 0.00 | 0.00 | 0.00 | 97 | 1017.6 |
| 20260508060804 | 2 | 102 | 0.0 | 0.0 | 0.00 | 0.00 | 0.00 | 97 | 1017.5 |
| 20260508060302 | 2 | 106 | 0.0 | 0.0 | 0.00 | 0.00 | 0.00 | 97 | 1017.6 |
| 20260508055757 | 2 | 105 | 0.0 | 0.0 | 0.00 | 0.00 | 0.00 | 97 | 1017.7 |
| 20260508055255 | 2 | 109 | 0.0 | 0.0 | 0.00 | 0.00 | 0.00 | 97 | 1017.7 |
| 20260508054750 | 2 | 109 | 0.0 | 0.0 | 0.00 | 0.00 | 0.00 | 97 | 1017.7 |
| 20260508054249 | 2 | 109 | 0.0 | 0.0 | 0.00 | 0.00 | 0.00 | 97 | 1017.7 |
| 20260508053745 | 2 | 124 | 0.0 | 0.0 | 0.00 | 0.00 | 0.00 | 97 | 1017.7 |
| 20260508053243 | 2 | 122 | 0.0 | 0.0 | 0.00 | 0.00 | 0.00 | 97 | 1017.8 |
| 20260508052740 | 3 | 124 | 0.0 | 0.0 | 0.00 | 0.00 | 0.00 | 97 | 1017.7 |
| 20260508052237 | 3 | 124 | 0.0 | 0.0 | 0.00 | 0.00 | 0.00 | 97 | 1017.8 |
| 20260508051733 | 3 | 121 | 0.0 | 0.0 | 0.00 | 0.00 | 0.00 | 96 | 1017.7 |
| 20260508051228 | 3 | 121 | 0.0 | 0.0 | 0.00 | 0.00 | 0.00 | 96 | 1017.8 |
| 20260508050725 | 3 | 121 | 0.0 | 0.0 | 0.00 | 0.00 | 0.00 | 96 | 1017.8 |
| 20260508050223 | 3 | 121 | 0.0 | 0.0 | 0.00 | 0.00 | 0.00 | 96 | 1017.8 |
| 20260508045718 | 3 | 123 | 0.0 | 0.0 | 0.00 | 0.00 | 0.00 | 95 | 1017.9 |
| 20260508045216 | 3 | 104 | 0.0 | 0.0 | 0.00 | 0.00 | 0.00 | 95 | 1017.8 |
| 20260508044713 | 3 | 102 | 0.0 | 0.0 | 0.00 | 0.00 | 0.00 | 95 | 1017.9 |
| 20260508044210 | 3 | 101 | 0.0 | 0.0 | 0.00 | 0.00 | 0.00 | 95 | 1017.9 |
| 20260508043705 | 3 | 103 | 0.0 | 0.0 | 0.00 | 0.00 | 0.00 | 95 | 1017.7 |
| 20260508043204 | 3 | 117 | 0.0 | 0.0 | 0.00 | 0.00 | 0.00 | 95 | 1017.8 |
| 20260508042700 | 3 | 118 | 0.0 | 0.0 | 0.00 | 0.00 | 0.00 | 95 | 1017.6 |
| 20260508042157 | 3 | 119 | 0.0 | 0.0 | 0.00 | 0.00 | 0.00 | 94 | 1017.7 |
| 20260508041653 | 3 | 120 | 0.0 | 0.0 | 0.00 | 0.00 | 0.00 | 94 | 1017.7 |
| 20260508041150 | 3 | 119 | 0.0 | 0.0 | 0.00 | 0.00 | 0.00 | 93 | 1017.5 |
| 20260508040647 | 4 | 118 | 0.0 | 0.0 | 0.00 | 0.00 | 0.00 | 93 | 1017.6 |
| 20260508040144 | 4 | 113 | 0.0 | 0.0 | 0.00 | 0.03 | 0.03 | 92 | 1017.4 |
| 20260508035641 | 4 | 112 | 0.0 | 0.0 | 0.00 | 0.03 | 0.03 | 92 | 1017.4 |
| 20260508035139 | 4 | 98 | 0.0 | 0.0 | 0.00 | 0.03 | 0.03 | 92 | 1017.4 |
| 20260508034636 | 4 | 129 | 0.0 | 0.0 | 0.00 | 0.03 | 0.03 | 92 | 1017.4 |
| 20260508034133 | 4 | 142 | 0.0 | 0.0 | 0.00 | 0.03 | 0.03 | 91 | 1017.4 |
| 20260508033630 | 5 | 143 | 0.0 | 0.0 | 0.00 | 0.03 | 0.03 | 91 | 1017.3 |
| 20260508033128 | 5 | 143 | 0.0 | 0.0 | 0.00 | 0.03 | 0.03 | 90 | 1017.3 |
| 20260508032624 | 5 | 131 | 0.0 | 0.0 | 0.00 | 0.03 | 0.03 | 90 | 1017.2 |
| 20260508032122 | 5 | 132 | 0.0 | 0.0 | 0.00 | 0.03 | 0.03 | 90 | 1017.3 |
| 20260508031619 | 5 | 136 | 0.0 | 0.0 | 0.00 | 0.03 | 0.03 | 89 | 1017.2 |
| 20260508031115 | 5 | 133 | 0.0 | 0.0 | 0.00 | 0.03 | 0.03 | 89 | 1017.4 |
| 20260508030611 | 5 | 152 | 0.0 | 0.0 | 0.00 | 0.03 | 0.03 | 88 | 1017.2 |
| 20260508030110 | 5 | 153 | 0.0 | 0.0 | 0.00 | 0.03 | 0.03 | 88 | 1016.9 |
| 20260508025605 | 5 | 138 | 0.0 | 0.0 | 0.00 | 0.03 | 0.03 | 87 | 1017.2 |
| 20260508025103 | 5 | 126 | 0.0 | 0.0 | 0.00 | 0.03 | 0.03 | 86 | 1016.8 |
| 20260508024558 | 6 | 127 | 0.0 | 0.0 | 0.00 | 0.03 | 0.03 | 86 | 1016.8 |
| 20260508024056 | 6 | 129 | 0.0 | 0.0 | 0.00 | 0.03 | 0.03 | 86 | 1016.9 |
| 20260508023552 | 6 | 134 | 0.0 | 0.0 | 0.00 | 0.03 | 0.03 | 85 | 1016.8 |
| 20260508023050 | 6 | 134 | 0.0 | 0.0 | 0.00 | 0.03 | 0.03 | 85 | 1016.8 |
| 20260508022545 | 6 | 136 | 0.0 | 1.6 | 0.00 | 0.03 | 0.03 | 85 | 1016.7 |
| 20260508022043 | 6 | 97 | 0.0 | 0.0 | 0.00 | 0.03 | 0.03 | 83 | 1016.7 |
| 20260508021538 | 6 | 141 | 0.0 | 0.0 | 0.00 | 0.03 | 0.03 | 83 | 1016.7 |
| 20260508021034 | 6 | 140 | 0.0 | 0.0 | 0.00 | 0.03 | 0.03 | 81 | 1016.5 |
| 20260508020532 | 7 | 143 | 0.0 | 0.0 | 0.00 | 0.03 | 0.03 | 81 | 1016.4 |
| 20260508020030 | 7 | 106 | 0.0 | 0.0 | 0.00 | 0.03 | 0.03 | 80 | 1016.2 |
| 20260508015527 | 7 | 152 | 0.0 | 0.0 | 0.00 | 0.03 | 0.03 | 83 | 1016.1 |
| 20260508015024 | 7 | 196 | 0.0 | 0.0 | 0.00 | 0.03 | 0.03 | 78 | 1016.1 |
| 20260508014520 | 7 | 211 | 0.0 | 0.0 | 0.00 | 0.03 | 0.03 | 78 | 1016.2 |
| 20260508014016 | 7 | 212 | 0.0 | 0.0 | 0.00 | 0.03 | 0.03 | 76 | 1016.1 |
| 20260508013512 | 8 | 213 | 0.0 | 0.0 | 0.00 | 0.03 | 0.03 | 76 | 1016.0 |
| 20260508013010 | 8 | 215 | 0.0 | 0.0 | 0.00 | 0.03 | 0.03 | 76 | 1015.8 |
| 20260508012507 | 8 | 231 | 0.0 | 0.0 | 0.00 | 0.03 | 0.03 | 74 | 1016.0 |
| 20260508012004 | 8 | 231 | 0.0 | 0.0 | 0.00 | 0.03 | 0.03 | 76 | 1015.5 |
| 20260508011502 | 8 | 231 | 0.0 | 0.0 | 0.00 | 0.03 | 0.03 | 75 | 1015.6 |
| 20260508010959 | 8 | 231 | 0.0 | 1.6 | 0.00 | 0.03 | 0.03 | 74 | 1015.5 |
| 20260508010456 | 9 | 272 | 0.0 | 0.0 | 0.00 | 0.03 | 0.03 | 70 | 1015.3 |
| 20260508005954 | 9 | 265 | 0.0 | 1.6 | 0.00 | 0.03 | 0.03 | 70 | 1015.1 |
| 20260508005450 | 10 | 186 | 0.0 | 0.0 | 0.00 | 0.03 | 0.03 | 69 | 1015.4 |
| 20260508004947 | 10 | 188 | 0.0 | 0.0 | 0.00 | 0.03 | 0.03 | 71 | 1015.2 |
| 20260508004443 | 10 | 277 | 0.0 | 0.0 | 0.00 | 0.03 | 0.03 | 60 | 1015.2 |
| 20260508003940 | 11 | 248 | 0.0 | 1.6 | 0.00 | 0.03 | 0.03 | 62 | 1015.3 |
| 20260508003436 | 11 | 322 | 0.0 | 1.6 | 0.00 | 0.03 | 0.03 | 64 | 1015.1 |
| 20260508002934 | 12 | 312 | 1.6 | 4.8 | 0.00 | 0.03 | 0.03 | 60 | 1014.8 |
| 20260508002430 | 12 | 340 | 0.0 | 1.6 | 0.00 | 0.03 | 0.03 | 54 | 1014.9 |
| 20260508001926 | 11 | 52 | 0.0 | 1.6 | 0.00 | 0.03 | 0.03 | 64 | 1014.8 |
| 20260508001423 | 12 | 56 | 0.0 | 1.6 | 0.00 | 0.03 | 0.03 | 66 | 1014.9 |
| 20260508000919 | 12 | 293 | 0.0 | 1.6 | 0.00 | 0.03 | 0.03 | 62 | 1014.8 |
| 20260508000415 | 12 | 273 | 1.6 | 1.6 | 0.00 | 0.03 | 0.03 | 61 | 1014.6 |
| 20260507235912 | 12 | 64 | 0.0 | 1.6 | 0.00 | 0.03 | 0.03 | 58 | 1014.3 |
| 20260507235409 | 12 | 15 | 0.0 | 1.6 | 0.00 | 0.03 | 0.03 | 57 | 1014.6 |
| 20260507234906 | 13 | 30 | 1.6 | 3.2 | 0.00 | 0.03 | 0.03 | 57 | 1014.4 |
| 20260507234403 | 13 | 212 | 0.0 | 1.6 | 0.00 | 0.03 | 0.03 | 48 | 1014.2 |
| 20260507233859 | 13 | 337 | 1.6 | 3.2 | 0.00 | 0.03 | 0.03 | 53 | 1014.3 |
| 20260507233357 | 15 | 289 | 1.6 | 4.8 | 0.00 | 0.03 | 0.03 | 49 | 1014.4 |
| 20260507232855 | 15 | 303 | 1.6 | 4.8 | 0.00 | 0.03 | 0.03 | 40 | 1014.2 |
| 20260507232351 | 16 | 212 | 0.0 | 3.2 | 0.00 | 0.03 | 0.03 | 49 | 1014.3 |
| 20260507231849 | 16 | 265 | 0.0 | 4.8 | 0.00 | 0.03 | 0.03 | 38 | 1014.1 |
| 20260507231345 | 16 | 294 | 3.2 | 4.8 | 0.00 | 0.03 | 0.03 | 39 | 1014.0 |
| 20260507230841 | 16 | 243 | 6.4 | 6.4 | 0.00 | 0.03 | 0.03 | 36 | 1013.9 |
| 20260507230339 | 16 | 255 | 4.8 | 9.7 | 0.00 | 0.03 | 0.03 | 37 | 1014.1 |
| 20260507225838 | 16 | 320 | 3.2 | 4.8 | 0.00 | 0.03 | 0.03 | 42 | 1014.2 |
| 20260507225335 | 15 | 264 | 0.0 | 1.6 | 0.00 | 0.03 | 0.03 | 42 | 1013.8 |
| 20260507224831 | 16 | 289 | 4.8 | 4.8 | 0.00 | 0.03 | 0.03 | 42 | 1014.0 |
| 20260507224328 | 16 | 5 | 4.8 | 9.7 | 0.00 | 0.03 | 0.03 | 36 | 1013.7 |
| 20260507223824 | 16 | 279 | 1.6 | 11.3 | 0.00 | 0.03 | 0.03 | 36 | 1013.6 |
| 20260507223320 | 16 | 231 | 4.8 | 6.4 | 0.00 | 0.03 | 0.03 | 39 | 1013.9 |
| 20260507222818 | 16 | 247 | 3.2 | 4.8 | 0.00 | 0.03 | 0.03 | 36 | 1013.9 |
| 20260507222314 | 16 | 188 | 1.6 | 3.2 | 0.00 | 0.03 | 0.03 | 40 | 1013.5 |
| 20260507221811 | 16 | 247 | 4.8 | 6.4 | 0.00 | 0.03 | 0.03 | 40 | 1013.8 |
| 20260507221307 | 16 | 292 | 4.8 | 4.8 | 0.00 | 0.03 | 0.03 | 43 | 1013.7 |
| 20260507220803 | 16 | 188 | 3.2 | 3.2 | 0.00 | 0.03 | 0.03 | 44 | 1013.4 |
| 20260507220302 | 16 | 265 | 3.2 | 4.8 | 0.00 | 0.03 | 0.03 | 43 | 1013.5 |
| 20260507215758 | 16 | 248 | 1.6 | 3.2 | 0.00 | 0.03 | 0.03 | 42 | 1013.6 |
| 20260507215255 | 16 | 25 | 4.8 | 12.9 | 0.00 | 0.03 | 0.03 | 39 | 1013.3 |
| 20260507214752 | 16 | 348 | 4.8 | 14.5 | 0.00 | 0.03 | 0.03 | 37 | 1013.5 |
| 20260507214249 | 17 | 300 | 9.7 | 16.1 | 0.00 | 0.03 | 0.03 | 39 | 1013.5 |
| 20260507213744 | 17 | 207 | 6.4 | 6.4 | 0.00 | 0.03 | 0.03 | 38 | 1013.1 |
| 20260507213242 | 16 | 259 | 3.2 | 4.8 | 0.00 | 0.03 | 0.03 | 38 | 1013.1 |
| 20260507212738 | 16 | 266 | 4.8 | 9.7 | 0.00 | 0.03 | 0.03 | 40 | 1013.3 |
| 20260507212235 | 16 | 260 | 4.8 | 9.7 | 0.00 | 0.03 | 0.03 | 41 | 1013.0 |
| 20260507211732 | 16 | 229 | 1.6 | 4.8 | 0.00 | 0.03 | 0.03 | 45 | 1013.1 |
| 20260507211228 | 16 | 249 | 1.6 | 4.8 | 0.00 | 0.03 | 0.03 | 43 | 1013.1 |
| 20260507210725 | 15 | 259 | 1.6 | 3.2 | 0.00 | 0.03 | 0.03 | 43 | 1013.2 |
| 20260507210222 | 15 | 253 | 3.2 | 3.2 | 0.00 | 0.03 | 0.03 | 44 | 1013.0 |
| 20260507205718 | 16 | 237 | 3.2 | 4.8 | 0.00 | 0.03 | 0.03 | 43 | 1013.0 |
| 20260507205215 | 16 | 275 | 4.8 | 9.7 | 0.00 | 0.03 | 0.03 | 40 | 1012.9 |
| 20260507204711 | 16 | 348 | 1.6 | 9.7 | 0.00 | 0.03 | 0.03 | 39 | 1013.1 |
| 20260507204209 | 17 | 313 | 3.2 | 3.2 | 0.00 | 0.03 | 0.03 | 40 | 1012.7 |
| 20260507203707 | 16 | 22 | 6.4 | 12.9 | 0.00 | 0.03 | 0.03 | 39 | 1013.0 |
| 20260507203204 | 17 | 291 | 4.8 | 12.9 | 0.00 | 0.03 | 0.03 | 41 | 1012.9 |
| 20260507202659 | 17 | 93 | 1.6 | 12.9 | 0.00 | 0.03 | 0.03 | 42 | 1013.0 |
| 20260507202155 | 17 | 275 | 6.4 | 11.3 | 0.00 | 0.03 | 0.03 | 41 | 1013.0 |
| 20260507201651 | 17 | 264 | 4.8 | 4.8 | 0.00 | 0.03 | 0.03 | 41 | 1013.2 |
| 20260507201148 | 16 | 252 | 4.8 | 6.4 | 0.00 | 0.03 | 0.03 | 44 | 1013.1 |
| 20260507200644 | 17 | 248 | 4.8 | 9.7 | 0.00 | 0.03 | 0.03 | 41 | 1013.4 |
| 20260507200140 | 17 | 223 | 6.4 | 9.7 | 0.00 | 0.03 | 0.03 | 41 | 1013.3 |
| 20260507195637 | 17 | 274 | 4.8 | 14.5 | 0.00 | 0.03 | 0.03 | 44 | 1013.5 |
| 20260507195134 | 17 | 195 | 8.0 | 11.3 | 0.00 | 0.03 | 0.03 | 39 | 1013.5 |
| 20260507194631 | 18 | 292 | 4.8 | 6.4 | 0.00 | 0.03 | 0.03 | 44 | 1013.3 |
| 20260507194126 | 17 | 270 | 1.6 | 6.4 | 0.00 | 0.03 | 0.03 | 47 | 1013.5 |
| 20260507193624 | 17 | 254 | 6.4 | 11.3 | 0.00 | 0.03 | 0.03 | 44 | 1013.5 |
| 20260507193121 | 17 | 272 | 0.0 | 3.2 | 0.00 | 0.03 | 0.03 | 45 | 1013.6 |
| 20260507192617 | 15 | 210 | 0.0 | 4.8 | 0.00 | 0.03 | 0.03 | 45 | 1013.8 |
| 20260507192114 | 16 | 254 | 4.8 | 6.4 | 0.00 | 0.03 | 0.03 | 45 | 1013.7 |
| 20260507191610 | 17 | 272 | 4.8 | 6.4 | 0.00 | 0.03 | 0.03 | 46 | 1013.7 |
| 20260507191107 | 17 | 343 | 8.0 | 11.3 | 0.00 | 0.03 | 0.03 | 39 | 1013.8 |
| 20260507190604 | 16 | 147 | 3.2 | 11.3 | 0.00 | 0.03 | 0.03 | 42 | 1013.6 |
| 20260507185601 | 16 | 206 | 3.2 | 4.8 | 0.00 | 0.03 | 0.03 | 45 | 1013.7 |
| 20260507185057 | 16 | 239 | 1.6 | 6.4 | 0.00 | 0.03 | 0.03 | 44 | 1013.9 |
| 20260507184555 | 16 | 271 | 4.8 | 6.4 | 0.00 | 0.03 | 0.03 | 46 | 1013.8 |
| 20260507184052 | 17 | 251 | 3.2 | 9.7 | 0.00 | 0.03 | 0.03 | 46 | 1013.6 |
| 20260507183548 | 17 | 291 | 6.4 | 6.4 | 0.00 | 0.03 | 0.03 | 42 | 1013.8 |
| 20260507183046 | 17 | 323 | 6.4 | 9.7 | 0.00 | 0.03 | 0.03 | 43 | 1013.8 |
| 20260507182542 | 17 | 284 | 3.2 | 6.4 | 0.00 | 0.03 | 0.03 | 44 | 1013.7 |
| 20260507182038 | 17 | 328 | 0.0 | 6.4 | 0.00 | 0.03 | 0.03 | 45 | 1013.9 |
| 20260507181535 | 17 | 258 | 1.6 | 4.8 | 0.00 | 0.03 | 0.03 | 47 | 1013.9 |
| 20260507181031 | 17 | 25 | 4.8 | 11.3 | 0.00 | 0.03 | 0.03 | 43 | 1014.1 |
| 20260507180527 | 16 | 122 | 1.6 | 3.2 | 0.00 | 0.03 | 0.03 | 46 | 1013.9 |
| 20260507180025 | 17 | 190 | 6.4 | 6.4 | 0.00 | 0.03 | 0.03 | 52 | 1014.1 |
| 20260507175521 | 16 | 8 | 1.6 | 12.9 | 0.00 | 0.03 | 0.03 | 45 | 1014.3 |
| 20260507175019 | 16 | 279 | 3.2 | 9.7 | 0.00 | 0.03 | 0.03 | 46 | 1014.3 |
| 20260507174515 | 16 | 248 | 4.8 | 11.3 | 0.00 | 0.03 | 0.03 | 49 | 1014.3 |
| 20260507174013 | 16 | 260 | 4.8 | 9.7 | 0.00 | 0.03 | 0.03 | 47 | 1014.3 |
| 20260507173510 | 16 | 275 | 3.2 | 4.8 | 0.00 | 0.03 | 0.03 | 48 | 1014.3 |
| 20260507173008 | 17 | 253 | 8.0 | 12.9 | 0.00 | 0.03 | 0.03 | 44 | 1014.3 |
| 20260507172503 | 16 | 248 | 1.6 | 4.8 | 0.00 | 0.03 | 0.03 | 50 | 1014.4 |
| 20260507172000 | 17 | 267 | 3.2 | 16.1 | 0.00 | 0.03 | 0.03 | 46 | 1014.4 |
| 20260507171455 | 17 | 239 | 4.8 | 4.8 | 0.00 | 0.03 | 0.03 | 56 | 1014.3 |
| 20260507170953 | 16 | 144 | 3.2 | 4.8 | 0.00 | 0.03 | 0.03 | 52 | 1014.5 |
| 20260507170449 | 15 | 309 | 0.0 | 3.2 | 0.00 | 0.03 | 0.03 | 54 | 1014.4 |
| 20260507165946 | 15 | 257 | 1.6 | 9.7 | 0.00 | 0.03 | 0.03 | 51 | 1014.6 |
| 20260507165442 | 15 | 356 | 1.6 | 4.8 | 0.00 | 0.03 | 0.03 | 48 | 1014.5 |
| 20260507164938 | 15 | 267 | 1.6 | 3.2 | 0.00 | 0.03 | 0.03 | 52 | 1014.6 |
| 20260507164435 | 15 | 256 | 1.6 | 1.6 | 0.00 | 0.03 | 0.03 | 58 | 1014.7 |
| 20260507163932 | 15 | 26 | 0.0 | 4.8 | 0.00 | 0.03 | 0.03 | 52 | 1014.8 |
| 20260507163429 | 15 | 282 | 4.8 | 6.4 | 0.00 | 0.03 | 0.03 | 53 | 1014.8 |
| 20260507162926 | 16 | 269 | 4.8 | 4.8 | 0.00 | 0.03 | 0.03 | 51 | 1014.7 |
| 20260507162421 | 16 | 342 | 6.4 | 12.9 | 0.00 | 0.03 | 0.03 | 50 | 1015.1 |
| 20260507161919 | 15 | 254 | 3.2 | 6.4 | 0.00 | 0.03 | 0.03 | 55 | 1015.2 |
| 20260507161415 | 15 | 318 | 6.4 | 6.4 | 0.00 | 0.03 | 0.03 | 59 | 1015.0 |
| 20260507160912 | 16 | 93 | 4.8 | 6.4 | 0.00 | 0.03 | 0.03 | 50 | 1015.1 |
| 20260507160408 | 15 | 257 | 1.6 | 3.2 | 0.00 | 0.03 | 0.03 | 54 | 1015.2 |
| 20260507155904 | 13 | 131 | 3.2 | 3.2 | 0.00 | 0.03 | 0.03 | 57 | 1015.2 |
| 20260507155400 | 13 | 266 | 0.0 | 1.6 | 0.00 | 0.03 | 0.03 | 63 | 1015.2 |
| 20260507154857 | 13 | 210 | 1.6 | 3.2 | 0.00 | 0.03 | 0.03 | 58 | 1015.1 |
| 20260507154354 | 13 | 70 | 0.0 | 6.4 | 0.00 | 0.03 | 0.03 | 58 | 1015.3 |
| 20260507153851 | 13 | 249 | 1.6 | 1.6 | 0.00 | 0.03 | 0.03 | 62 | 1015.5 |
| 20260507153347 | 13 | 205 | 1.6 | 3.2 | 0.00 | 0.03 | 0.03 | 65 | 1015.4 |
| 20260507152844 | 13 | 180 | 1.6 | 3.2 | 0.00 | 0.03 | 0.03 | 63 | 1015.4 |
| 20260507152340 | 14 | 38 | 1.6 | 3.2 | 0.00 | 0.03 | 0.03 | 54 | 1015.4 |
| 20260507151836 | 15 | 87 | 3.2 | 4.8 | 0.00 | 0.03 | 0.03 | 51 | 1015.3 |
| 20260507151332 | 15 | 188 | 1.6 | 6.4 | 0.00 | 0.03 | 0.03 | 54 | 1015.4 |
| 20260507150830 | 15 | 222 | 3.2 | 6.4 | 0.00 | 0.03 | 0.03 | 61 | 1015.6 |
| 20260507150326 | 14 | 220 | 3.2 | 9.7 | 0.00 | 0.03 | 0.03 | 57 | 1015.5 |
| 20260507145822 | 14 | 184 | 4.8 | 11.3 | 0.00 | 0.03 | 0.03 | 58 | 1015.8 |
| 20260507145319 | 14 | 262 | 6.4 | 9.7 | 0.00 | 0.03 | 0.03 | 60 | 1015.4 |
| 20260507144816 | 13 | 116 | 6.4 | 6.4 | 0.00 | 0.03 | 0.03 | 54 | 1015.6 |
| 20260507144314 | 13 | 220 | 6.4 | 6.4 | 0.00 | 0.03 | 0.03 | 60 | 1015.5 |
| 20260507143810 | 13 | 251 | 3.2 | 4.8 | 0.00 | 0.03 | 0.03 | 60 | 1015.8 |
| 20260507143307 | 13 | 262 | 3.2 | 3.2 | 0.00 | 0.03 | 0.03 | 62 | 1016.0 |
| 20260507142803 | 14 | 38 | 1.6 | 11.3 | 0.00 | 0.03 | 0.03 | 60 | 1015.7 |
| 20260507142300 | 13 | 262 | 1.6 | 3.2 | 0.00 | 0.03 | 0.03 | 72 | 1016.1 |
| 20260507141756 | 13 | 229 | 4.8 | 4.8 | 0.00 | 0.03 | 0.03 | 65 | 1016.1 |
| 20260507141254 | 13 | 197 | 4.8 | 4.8 | 0.00 | 0.03 | 0.03 | 65 | 1016.0 |
| 20260507140749 | 13 | 208 | 4.8 | 4.8 | 0.00 | 0.03 | 0.03 | 69 | 1016.3 |
| 20260507140247 | 13 | 220 | 0.0 | 1.6 | 0.00 | 0.03 | 0.03 | 74 | 1016.4 |
| 20260507135744 | 13 | 254 | 1.6 | 1.6 | 0.00 | 0.03 | 0.03 | 80 | 1016.5 |
| 20260507135241 | 12 | 241 | 0.0 | 1.6 | 0.00 | 0.03 | 0.03 | 84 | 1016.4 |
| 20260507134737 | 11 | 231 | 0.0 | 0.0 | 0.00 | 0.03 | 0.03 | 85 | 1016.5 |
| 20260507134234 | 12 | 208 | 0.0 | 0.0 | 0.00 | 0.03 | 0.03 | 85 | 1016.7 |
| 20260507133730 | 11 | 204 | 0.0 | 0.0 | 0.00 | 0.03 | 0.03 | 85 | 1016.6 |
| 20260507133227 | 11 | 204 | 0.0 | 0.0 | 0.00 | 0.03 | 0.03 | 86 | 1016.8 |
| 20260507132724 | 11 | 228 | 0.0 | 0.0 | 0.00 | 0.03 | 0.03 | 87 | 1016.7 |
| 20260507132221 | 11 | 228 | 0.0 | 0.0 | 0.00 | 0.03 | 0.03 | 86 | 1016.8 |
| 20260507131717 | 11 | 247 | 0.0 | 0.0 | 0.00 | 0.03 | 0.03 | 87 | 1016.7 |
| 20260507131215 | 11 | 246 | 0.0 | 0.0 | 0.00 | 0.03 | 0.03 | 88 | 1016.8 |
| 20260507130712 | 11 | 246 | 0.0 | 0.0 | 0.00 | 0.03 | 0.03 | 88 | 1016.7 |
| 20260507130210 | 10 | 246 | 0.0 | 0.0 | 0.00 | 0.03 | 0.03 | 93 | 1016.7 |
| 20260507125708 | 10 | 246 | 0.0 | 0.0 | 0.00 | 0.03 | 0.03 | 93 | 1016.7 |
| 20260507125205 | 10 | 254 | 0.0 | 0.0 | 0.00 | 0.03 | 0.03 | 93 | 1016.7 |
| 20260507124701 | 10 | 253 | 0.0 | 0.0 | 0.00 | 0.03 | 0.03 | 93 | 1016.6 |
| 20260507124159 | 10 | 268 | 0.0 | 0.0 | 0.00 | 0.03 | 0.03 | 94 | 1016.7 |
| 20260507123657 | 10 | 268 | 0.0 | 0.0 | 0.00 | 0.03 | 0.03 | 94 | 1016.9 |
| 20260507123154 | 10 | 268 | 0.0 | 0.0 | 0.00 | 0.03 | 0.03 | 95 | 1016.8 |
| 20260507122649 | 10 | 309 | 0.0 | 0.0 | 0.00 | 0.03 | 0.03 | 95 | 1016.9 |
| 20260507122145 | 10 | 311 | 0.0 | 0.0 | 0.00 | 0.03 | 0.03 | 96 | 1016.8 |
| 20260507121641 | 9 | 311 | 0.0 | 0.0 | 0.00 | 0.03 | 0.03 | 97 | 1016.8 |
| 20260507121137 | 9 | 315 | 0.0 | 0.0 | 0.00 | 0.03 | 0.03 | 98 | 1016.9 |
| 20260507120634 | 9 | 321 | 0.0 | 0.0 | 0.00 | 0.03 | 0.03 | 98 | 1017.0 |
| 20260507120130 | 9 | 321 | 0.0 | 0.0 | 0.00 | 0.03 | 0.03 | 98 | 1016.9 |
| 20260507115627 | 9 | 321 | 0.0 | 0.0 | 0.00 | 0.03 | 0.03 | 98 | 1017.0 |
| 20260507115122 | 9 | 322 | 0.0 | 0.0 | 0.00 | 0.03 | 0.03 | 99 | 1016.7 |
| 20260507114618 | 9 | 322 | 0.0 | 0.0 | 0.00 | 0.03 | 0.03 | 99 | 1016.9 |
| 20260507114116 | 9 | 322 | 0.0 | 0.0 | 0.00 | 0.03 | 0.03 | 99 | 1016.6 |
| 20260507113613 | 9 | 322 | 0.0 | 0.0 | 0.00 | 0.03 | 0.03 | 99 | 1016.5 |
| 20260507113110 | 9 | 322 | 0.0 | 0.0 | 0.00 | 0.03 | 0.03 | 99 | 1016.4 |
| 20260507112608 | 9 | 322 | 0.0 | 0.0 | 0.00 | 0.03 | 0.03 | 99 | 1016.3 |
| 20260507112104 | 8 | 322 | 0.0 | 0.0 | 0.00 | 0.03 | 0.03 | 99 | 1016.2 |
| 20260507111602 | 8 | 325 | 0.0 | 0.0 | 0.00 | 0.03 | 0.03 | 99 | 1016.1 |
| 20260507111058 | 8 | 325 | 0.0 | 0.0 | 0.00 | 0.03 | 0.03 | 99 | 1016.0 |
| 20260507110554 | 8 | 325 | 0.0 | 0.0 | 0.00 | 0.03 | 0.03 | 99 | 1016.0 |
| 20260507110051 | 8 | 325 | 0.0 | 0.0 | 0.00 | 0.03 | 0.03 | 99 | 1016.1 |
| 20260507105548 | 8 | 327 | 0.0 | 0.0 | 0.00 | 0.03 | 0.03 | 99 | 1015.6 |
| 20260507105044 | 8 | 327 | 0.0 | 0.0 | 0.00 | 0.03 | 0.03 | 99 | 1015.7 |
| 20260507104542 | 8 | 327 | 0.0 | 0.0 | 0.00 | 0.03 | 0.03 | 99 | 1016.0 |
| 20260507104038 | 8 | 327 | 0.0 | 0.0 | 0.00 | 0.03 | 0.03 | 99 | 1015.8 |
| 20260507103534 | 8 | 327 | 0.0 | 0.0 | 0.00 | 0.03 | 0.03 | 99 | 1015.7 |
| 20260507103031 | 8 | 327 | 0.0 | 0.0 | 0.00 | 0.03 | 0.03 | 99 | 1015.8 |
| 20260507102527 | 8 | 330 | 0.0 | 0.0 | 0.00 | 0.03 | 0.03 | 99 | 1015.7 |
| 20260507102023 | 8 | 342 | 0.0 | 0.0 | 0.00 | 0.03 | 0.03 | 99 | 1015.5 |
| 20260507101519 | 8 | 343 | 0.0 | 0.0 | 0.00 | 0.03 | 0.03 | 99 | 1015.6 |
| 20260507101016 | 8 | 345 | 0.0 | 0.0 | 0.00 | 0.03 | 0.03 | 99 | 1015.7 |
| 20260507100513 | 8 | 342 | 0.0 | 0.0 | 0.00 | 0.03 | 0.03 | 99 | 1016.0 |
| 20260507100011 | 8 | 332 | 0.0 | 0.0 | 0.00 | 0.03 | 0.03 | 99 | 1015.7 |
| 20260507095509 | 8 | 325 | 0.0 | 0.0 | 0.00 | 0.03 | 0.03 | 99 | 1015.8 |
| 20260507095005 | 8 | 325 | 0.0 | 0.0 | 0.00 | 0.03 | 0.03 | 99 | 1016.2 |
| 20260507094501 | 8 | 325 | 0.0 | 0.0 | 0.00 | 0.03 | 0.03 | 99 | 1015.8 |
| 20260507093959 | 9 | 327 | 0.0 | 0.0 | 0.00 | 0.03 | 0.03 | 99 | 1015.4 |
| 20260507093456 | 9 | 331 | 0.0 | 0.0 | 0.00 | 0.03 | 0.03 | 99 | 1015.5 |
| 20260507092954 | 9 | 331 | 0.0 | 0.0 | 0.00 | 0.03 | 0.03 | 99 | 1015.7 |
| 20260507092450 | 9 | 332 | 1.6 | 1.6 | 0.00 | 0.03 | 0.03 | 99 | 1015.6 |
| 20260507091947 | 9 | 320 | 1.6 | 1.6 | 0.00 | 0.03 | 0.03 | 99 | 1015.7 |
| 20260507091444 | 9 | 312 | 0.0 | 0.0 | 0.00 | 0.03 | 0.03 | 99 | 1015.5 |
| 20260507090940 | 9 | 312 | 0.0 | 0.0 | 0.00 | 0.03 | 0.03 | 99 | 1015.3 |
| 20260507090436 | 9 | 312 | 0.0 | 0.0 | 0.00 | 0.03 | 0.03 | 99 | 1015.4 |
| 20260507085932 | 9 | 312 | 0.0 | 0.0 | 0.00 | 0.03 | 0.03 | 99 | 1015.4 |
| 20260507085430 | 10 | 312 | 0.0 | 0.0 | 0.00 | 0.03 | 0.03 | 99 | 1015.1 |
| 20260507084927 | 10 | 312 | 0.0 | 0.0 | 0.00 | 0.03 | 0.03 | 99 | 1015.1 |
| 20260507084424 | 10 | 312 | 0.0 | 0.0 | 0.00 | 0.03 | 0.03 | 99 | 1015.2 |
| 20260507083921 | 10 | 312 | 0.0 | 0.0 | 0.00 | 0.03 | 0.03 | 99 | 1015.5 |
| 20260507083417 | 10 | 312 | 0.0 | 0.0 | 0.00 | 0.03 | 0.03 | 99 | 1015.7 |
| 20260507082913 | 10 | 312 | 0.0 | 0.0 | 0.00 | 0.03 | 0.03 | 99 | 1015.6 |
| 20260507082409 | 10 | 312 | 0.0 | 0.0 | 0.00 | 0.03 | 0.03 | 99 | 1015.5 |
| 20260507081906 | 10 | 312 | 0.0 | 0.0 | 0.00 | 0.03 | 0.03 | 99 | 1015.5 |
| 20260507081402 | 10 | 312 | 0.0 | 0.0 | 0.00 | 0.03 | 0.03 | 99 | 1015.7 |
| 20260507080859 | 10 | 312 | 0.0 | 0.0 | 0.00 | 0.03 | 0.03 | 99 | 1015.5 |
| 20260507080355 | 10 | 312 | 0.0 | 0.0 | 0.00 | 0.03 | 0.03 | 99 | 1015.6 |
| 20260507075851 | 10 | 312 | 0.0 | 0.0 | 0.00 | 0.03 | 0.03 | 99 | 1015.3 |
| 20260507075347 | 10 | 312 | 0.0 | 0.0 | 0.00 | 0.03 | 0.03 | 99 | 1015.7 |
| 20260507074844 | 10 | 312 | 0.0 | 0.0 | 0.00 | 0.03 | 0.03 | 99 | 1015.3 |
| 20260507074341 | 10 | 312 | 0.0 | 0.0 | 0.00 | 0.03 | 0.03 | 99 | 1015.5 |
| 20260507073838 | 10 | 312 | 0.0 | 0.0 | 0.00 | 0.03 | 0.03 | 99 | 1015.6 |
| 20260507073335 | 10 | 312 | 0.0 | 0.0 | 0.00 | 0.03 | 0.03 | 99 | 1015.5 |